Regional Weather Roundup
Issued by NWS Pendleton, OR

Home | Current Version | Previous Version | Text Only | Print | Product List | Glossary On
Versions: 1 2 3 4 5 6 7 8 9 10 11 12 13 14 15 16 17 18 19 20 21 22 23 24 25 26 27 28 29 30 31 32 33 34 35 36 37 38 39 40 41 42 43 44 45 46 47 48 49 50
000
ASUS46 KPDT 291025
RWRPDT
PENDLETON REGIONAL WEATHER ROUNDUP
NATIONAL WEATHER SERVICE PENDLETON OREGON
300 AM PDT SUN MAR 29 2015

NOTE: FAIR INDICATES FEW OR NO CLOUDS BELOW 12,000 FEET WITH NO
SIGNIFICANT WEATHER AND/OR OBSTRUCTIONS TO VISIBILITY.

# INDICATES UNOFFICIAL STATION AND DATA

WAZ520-291110-
EAST SLOPES OF WASHINGTON CASCADES

CITY            SKY/WX      TMP DP  RH  WIND    PRES   REMARKS
#BUMPING DAM    N/A         38  N/A N/A CALM    N/A
#CLE ELUM HS    N/A         40  39  96  CALM    30.22F
#CLE ELUM LAKE  N/A         40  37  89  CALM    30.27F
#CLIFFDEL 2NW   N/A         37  35  92  CALM    N/A
#GLENWOOD       N/A         36  34  92  CALM    30.29F
#MANASTASH CYN  N/A         38  32  79  CALM    30.22F
#NELSON         N/A         40  38  92  CALM    30.31F
#NELSON 3SW     N/A         38  36  92  CALM    30.50F
#NILE           N/A         39  36  89  CALM    29.55F
#RONALD 2NW     N/A         42  -11 10  CALM    30.12F
#SNOWDEN        N/A         39  31  73  CALM    N/A
#TEANAWAY 4NE   N/A         40  39  96  CALM    N/A
#TROUT LAKE 1NE N/A         39  37  92  CALM    30.31F
$$

WAZ521-291110-
SIMCOE HIGHLANDS

CITY            SKY/WX      TMP DP  RH  WIND    PRES   REMARKS
#CENTERVILLE 4W N/A         45  39  79  N3      30.02F
#CENTERVILLE 1SWN/A         42  37  82  CALM    30.27F
#GOLDENDALE     N/A         41  37  86  E1      N/A
#GOLDENDALE 1NE N/A         41  31  67  CALM    N/A
#GOLDENDALE 5WNWN/A         44  38  79  S3      30.29F
#GOODNOE HILLS  N/A         48  40  74  W12     N/A    WCI 43
#LYLE 6NE       N/A         44  38  79  CALM    30.28F
$$

WAZ026-291110-
KITTITAS VALLEY

CITY            SKY/WX      TMP DP  RH  WIND    PRES   REMARKS
ELLENSBURG AP   CLOUDY      44  37  76  W6      30.26F
#ELLENSBURG CWU N/A         42  38  86  W1      30.22F
#ELLENSBURG 3NE N/A         43  38  82  W3      30.26F
#ELLENSBURG 1E  N/A         39  34  82  CALM    N/A
#KITTITAS 4N    N/A         40  34  79  E1      28.56F
#KITTITAS 3S    N/A         36  34  92  CALM    30.27F
#THORP 6N       N/A         42  39  89  N2      30.29F
$$

WAZ027-291110-
YAKIMA VALLEY

CITY            SKY/WX      TMP DP  RH  WIND    PRES   REMARKS
SUNNYSIDE AP    PTCLDY      39  37  92  CALM    30.28F
YAKIMA AIRPORT  CLOUDY      43  36  76  W6      30.29F
YAKIMA-VAGABOND CLOUDY      45  37  73  SE3     30.27F
#DONALD 2NE     N/A         48  33  56  CALM    29.12F
#GRANDVIEW      N/A         45  36  70  CALM    30.29F
#MABTON         N/A         43  38  82  CALM    30.28F
#MOXEE 2E       N/A         44  32  62  CALM    30.21F
#NACHES 2SW     N/A         47  38  71  W7      30.27F
#OUTLOOK DOT    N/A         N/A N/A N/A CALM    N/A
#SELAH 8E       N/A         38  35  89  SE3     N/A
#TERRACE HTS    N/A         43  37  79  CALM    30.24F
#TOPPENISH      N/A         45  39  79  CALM    30.19F
#WAPATO 4NE     N/A         48  33  56  CALM    29.12F
#WEST VALLEY    N/A         44  37  76  CALM    30.27S
#W YAKIMA       N/A         46  38  73  NW1     30.27F
#WHITE SWAN 5E  N/A         45  39  79  CALM    30.28F
#WILEY CITY 3W  N/A         40  32  73  CALM    30.29F
$$

WAZ028-291110-
LOWER COLUMBIA BASIN...WASHINGTON

CITY            SKY/WX      TMP DP  RH  WIND    PRES   REMARKS
PASCO           CLOUDY      45  38  76  E6      30.29F
PROSSER AWOS    N/A         41  39  93  W2      30.31F
RICHLAND AWOS   CLOUDY      50  39  66  S7      30.29F
#BASIN CITY 5SW N/A         41  37  86  CALM    30.28F
#BENTON CITY    N/A         47  38  71  NW5     30.19F
#CONNELL 5N     N/A         41  37  86  CALM    30.28F
#CONNELL 5NW    N/A         44  38  79  CALM    30.24S
#ELTOPIA        N/A         43  38  82  CALM    30.25S
#ELTOPIA 6NW    N/A         44  38  79  CALM    29.24S
#KAHLOTUS       N/A         45  37  73  CALM    30.28F
#KENNEWICK 3S   N/A         47  37  68  S3      30.29F
#PASCO-BROADMOORN/A         47  39  74  SE1     30.20F
#PATERSON       N/A         45  38  76  NE1     30.28F
#PROSSER        N/A         47  36  65  CALM    30.28S
#SAGEMOOR 2W    N/A         45  39  79  CALM    30.13F
#TOUCHET 2S     N/A         41  37  86  CALM    30.29S
#WEST PASCO     N/A         48  37  65  SE1     30.32F
$$

WAZ029-291110-
FOOTHILLS OF THE BLUES...WASHINGTON

CITY            SKY/WX      TMP DP  RH  WIND    PRES   REMARKS
WALLA WALLA AP  CLOUDY      47  37  68  E7      30.29F
#DAYTON SCHOOL  N/A         43  32  65  N1      30.29F
#LOWDEN 2SE     N/A         41  38  89  E1      30.27F
#PLEASANT VIEW 1N/A         43  37  79  S7      30.32F
#PRESCOTT       N/A         39  37  92  CALM    30.28F
#SUDBURY        N/A         41  N/A N/A CALM    N/A
#WHITMAN COLLEGEN/A         47  38  71  E1      30.33F
#WAITSBURG 5S   N/A         44  37  76  CALM    30.39F
#WAITSBURG 8N   N/A         41  25  53  CALM    30.15F
#WALLA WALLA 5E N/A         46  39  76  NE5     N/A
#WALLA WALLA U  N/A         45  39  79  CALM    30.29F
#WHITMAN MISSIONN/A         42  38  86  CALM    30.31F
$$

WAZ030-291110-
BLUE MOUNTAINS...WASHINGTON

CITY            SKY/WX      TMP DP  RH  WIND    PRES   REMARKS
#DIXIE 5SE      N/A         45  30  55  CALM    30.21F
$$

ORZ009-041-WAZ024-291110-
COLUMBIA RIVER GORGE

CITY            SKY/WX      TMP DP  RH  WIND    PRES   REMARKS
HOOD RIVER AP   PTCLDY      45  41  86  CALM    30.32F
THE DALLES AP   MOCLDY      50  43  77  NW6     30.31F
#ARLINGTON AIRPON/A         47  40  76  SW3     29.99S
#CELILO DOT     N/A         50  37  61  CALM    N/A
#LYLE           N/A         49  44  83  N3      30.33F
#MOSIER 1S      N/A         45  37  73  CALM    30.29S
#MURDOCK        N/A         51  46  83  NW7     30.33F
#RUFUS DOT      N/A         N/A N/A N/A CALM    N/A

$$

ORZ510-291110-
NORTH CENTRAL OREGON

CITY            SKY/WX      TMP DP  RH  WIND    PRES   REMARKS
#CHENOWITH 1W   N/A         45  40  82  W9      N/A
#COW CYN RST AREN/A         43  33  67  CALM    N/A
#DUFUR 9E       N/A         45  38  76  CALM    30.35F
#GRASS VALLEY 1SN/A         44  38  79  S3      30.31F
#KENT DOT       N/A         43  32  65  S2      N/A
#MAUPIN SCHOOL  N/A         47  39  74  CALM    30.32F
#MORO SCHOOL    N/A         43  41  93  CALM    30.29F
#SHANIKO 5WSW   N/A         43  28  55  S3      N/A
#SHANIKO 4NW    N/A         43  33  67  SW5     30.29F
#TYGH VALLEY 2NEN/A         45  40  82  CALM    30.30F
#WAPANITIA AIRPON/A         44  39  82  CALM    30.32F
#WASCO DOT      N/A         44  41  89  NE2     N/A
#WASCO AIRPORT  N/A         45  37  73  W1      N/A
#WASCO 5NE      N/A         44  39  82  CALM    30.30F
$$

ORZ511-291110-
CENTRAL OREGON

CITY            SKY/WX      TMP DP  RH  WIND    PRES   REMARKS
BEND AIRPORT    MOCLDY      36  28  72  CALM    30.30F
MADRAS AIRPORT  MOCLDY      36  32  85  SE6     30.32F
PRINEVILLE AP   MOCLDY      30  27  88  CALM    30.31F
REDMOND AIRPORT MOCLDY      32  26  78  SE5     30.30F
#BEND 6E        N/A         34  24  66  CALM    30.28S
#BEND 1SW       N/A         35  30  82  NE1     N/A
#BEND-AWBREY    N/A         40  32  73  S3      30.30F
#BEND-KIM LN    N/A         39  31  73  SW6     30.26F
#CULVER         N/A         38  32  79  CALM    30.26F
#LAKE BILLY CHINN/A         41  24  50  CALM    30.36F
#MADRAS         N/A         40  33  76  SE5     N/A
#POWELL BUTTE   N/A         38  28  67  S1      29.90F
#PRINEVILLE 3N  N/A         33  30  89  E1      30.29F
#WARM SPRINGS   N/A         42  37  82  CALM    30.28F

$$


ORZ509-291110-
EAST SLOPES OF OREGON CASCADES

CITY            SKY/WX      TMP DP  RH  WIND    PRES   REMARKS
#BLUE BOX PASS  N/A         40  -10 11  CALM    N/A
#CAMP SHERMAN   N/A         30  27  88  CALM    30.38R
#LA PINE 4NW    N/A         26  22  85  CALM    30.39F
#LAVA BUTTE DOT N/A         33  27  78  CALM    N/A
#SISTERS AIRPOR N/A         30  30  100 CALM    30.17S
#SISTERS ODOT   N/A         31  N/A N/A CALM    N/A
#SISTERS 1NW    N/A         31  28  88  N3      N/A
#SISTERS 3N     N/A         31  23  72  CALM    30.31S
#SUNRIVER       N/A         30  27  88  CALM    30.22F
#TUMALO 3W      N/A         41  31  67  W3      30.19F
#WANOGA BUTTE D N/A         39  22  50  W1      N/A

$$

ORZ044-291110-
LOWER COLUMBIA BASIN...OREGON

CITY            SKY/WX      TMP DP  RH  WIND    PRES   REMARKS
HERMISTON       CLOUDY      44  37  76  SE5     30.29F
#BOARDMAN SCHOOLN/A         46  38  73  CALM    30.31F
#BOARDMAN 8SW   N/A         46  40  79  SW5     30.29F
#ECHO 8SW       N/A         46  37  71  SW6     30.27F
#IONE SCHOOL    N/A         44  28  53  CALM    30.29S
#IRRIGON 4NW    N/A         44  40  86  E2      N/A
#UMATILLA       N/A         58  36  44  SW1     30.22F
$$

ORZ507-291110-
NORTHERN FOOTHILLS OF THE BLUES

CITY            SKY/WX      TMP DP  RH  WIND    PRES   REMARKS
PENDLETON AIRPT CLOUDY      41  37  86  S7      30.29F
#ADAMS 3WNW     N/A         37  35  92  CALM    30.31F
#ATHENA         N/A         42  36  79  CALM    30.32F
#CAYUSE         N/A         44  37  76  E7      30.29F
#HELIX SCHOOL   N/A         36  34  92  CALM    30.30F
#HELIX 3N       N/A         43  37  79  S7      30.24F
#HELIX 6SW      N/A         41  37  86  E2      30.28
#HOLDMAN 5SE    N/A         42  38  86  CALM    30.28F
#HOLDMAN 6E     N/A         41  36  82  W1      30.11S
#M-F FERNDALE   N/A         44  36  73  CALM    30.27F
#M-F GROVE ELEM N/A         48  35  60  CALM    30.27F
#M-FREEWATER 5SEN/A         46  36  68  CALM    30.27F
#PENDLETON DNTN N/A         40  31  70  CALM    30.31S
#PDT AQUATIC CTRN/A         41  29  62  CALM    30.31S
#PENDLETON 5NE  N/A         37  34  89  CALM    30.25F
#PDT SUNRIDGE   N/A         37  34  89  CALM    30.32S
#PENDLETON 7NW  N/A         41  36  82  E3      N/A
#PILOT ROCK     N/A         42  34  73  CALM    30.30F
#TUTUILLA       N/A         39  36  89  CALM    30.30F
#UMAPINE 2E     N/A         45  39  79  CALM    30.26F
#WESTON SCHOOL  N/A         46  34  63  CALM    30.27F

$$

ORZ508-291110-
SOUTHERN FOOTHILLS OF THE BLUES

CITY            SKY/WX      TMP DP  RH  WIND    PRES   REMARKS
LEXINGTON       PTCLDY      45  37  73  SE10    30.31F
#AJAX           N/A         46  31  56  CALM    30.20F
#CONDON SCHOOL  N/A         43  36  76  CALM    30.23F
#CONDON 5W      N/A         44  33  65  NW3     30.26F
#FOSSIL SCHOOL  N/A         39  35  85  CALM    30.25F
#HEPPNER EOC    N/A         42  36  79  E3      30.26F
#HEPPNER 4NE    N/A         44  35  70  CALM    30.30F
#LEXINGTON 2SE  N/A         45  38  76  SE7     30.27S
#MIKKALO        N/A         48  36  63  W5      30.28F
#OLEX 4N        N/A         47  38  71  SW3     30.28F
#RUGGS 5NE      N/A         39  33  79  CALM    30.43F
#RUGGS 2SW      N/A         43  32  65  SW9     30.32F

$$

ORZ502-503-291110-
BLUE MOUNTAINS

CITY            SKY/WX      TMP DP  RH  WIND    PRES   REMARKS
MEACHAM         MOCLDY      31  28  88  CALM    30.29F
#BATTLE MTN DOT N/A         35  34  96  S7      N/A
#HEPPNER 15SE   N/A         37  31  79  CALM    30.20S
#LADD CYN SMT   N/A         32  28  85  E2      N/A
#LADD CREEK ODOTN/A         34  31  89  SW1     N/A
#LONG CREEK HS  N/A         36  33  89  CALM    30.26F
#N POWDER DOT   N/A         31  30  96  CALM    N/A
#PIKES PEAK     N/A         46  31  56  S9      27.99S
#TOLLGATE       N/A         34  31  89  CALM    30.20F
#TROY SCHOOL    N/A         37  34  89  CALM    30.21F
#UKIAH          N/A         31  29  92  CALM    30.38S
#WESTON 4E      N/A         42  33  70  E7      30.26F
$$

ORZ505-291110-
JOHN DAY BASIN

CITY            SKY/WX      TMP DP  RH  WIND    PRES   REMARKS
JOHN DAY        PTCLDY      38  30  73  SE12    30.31F WCI 30
#JOHN DAY KJDY  N/A         37  30  75  CALM    30.42R
#DAYVILLE SCHOOLN/A         39  33  79  CALM    30.28S
#MITCHELL       N/A         39  34  82  CALM    30.41F
#MONUMENT HS    N/A         40  34  79  CALM    30.31F
#MT. VERNON 5SE N/A         40  32  73  SW1     30.26S
#WINLOCK        N/A         39  30  70  CALM    30.36F
$$

ORZ506-291110-
OCHOCO AND JOHN DAY HIGHLANDS

CITY            SKY/WX      TMP DP  RH  WIND    PRES   REMARKS
#BUCK CREEK DOT N/A         39  39  100 SE3     N/A
#HORSE RIDGE DO N/A         24  18  77  SE2     N/A
#KEYES SMT DOT  N/A         37  27  67  CALM    N/A
#PAULINA SCHOOL N/A         69  35  28  CALM    30.24F
#PINE MTN OBS   N/A         40  19  42  S7      N/A
#PRAIRIE CITY   N/A         27  23  85  CALM    30.53R
#SENECA         N/A         28  N/A N/A N1      N/A
#SENECA 9NW     N/A         27  25  92  CALM    30.33F
$$

ORZ049-291110-
GRANDE RONDE VALLEY

CITY            SKY/WX      TMP DP  RH  WIND    PRES   REMARKS
LA GRANDE       MOCLDY      36  25  64  CALM    30.31F
#COVE           N/A         35  33  92  CALM    30.31F
#COVE SCHOOL    N/A         35  32  89  CALM    30.27F
#ELGIN 3N       N/A         32  29  89  CALM    30.28F
#ELGIN 1E       N/A         34  30  85  CALM    N/A
#IMBLER SCHOOL  N/A         36  32  85  N5      30.26F
#ISLAND CITY 4N N/A         47  45  93  CALM    30.30F
#LADD CYN DOT   N/A         38  31  76  SE7     N/A
#UNION 1S       N/A         36  31  82  CALM    30.25S
$$

ORZ050-291110-
WALLOWA COUNTY

CITY            SKY/WX      TMP DP  RH  WIND    PRES   REMARKS
JOSEPH AIRPORT  PTCLDY      32  25  75  CALM    30.32F
#ENTERPRISE HS  N/A         29  26  88  CALM    30.31S
#IMNAHA 10S     N/A         36  29  75  SW2     30.31S
#JOSEPH 3N      N/A         26  19  74  E2      30.29F
#JOSEPH 3W      N/A         33  23  66  SW2     30.11F
#LOSTINE        N/A         29  27  92  CALM    30.14F
#MT HOWARD 8000 N/A         32  13  45  SW1     30.28S
#PROMISE 1S     N/A         32  30  92  CALM    30.45F
#SHEEP RDG 7000 N/A         34  11  38  CALM    30.41S
#WALLOWA SCHOOL N/A         30  28  92  CALM    31.31F



$$



USA.gov is the U.S. government's official web portal to all federal, state and local government web resources and services.